Время (UTC), дата Ветер
(°,м/с) 
Видим.   Явления Облачность Т
(°С)
Тd
(°С)
f(%) Тe
(°С)
Pmin
(гПа)
dP
(гПа)
Po
(мм)
O2
(г/м3)
Тmin Tmax R s Состояние
почвы
00 01.10.10 270 (З) 5{20}  >10 км    3/3 600 м 
[Sc]
+13 +8.1 72 +12  1009.5  2.5  718  275           
03 01.10.10 270 (З) >10 км    3/3 600 м 
[Sc]
+12.7 +9.3 80 +12  1010.7  1.2  719  275           
06 01.10.10 270 (З) 10  >10 км    4/3 600 м средняя 
[Sc|Ac trans]
+13.7 +6.8 63 +12  1018.9  1.3  720  275  +12.4    0.0     
09 01.10.10 290 (З) 13  >10 км    5/5 600 м 
[Cu med, cong]
+17.6 +8.2 54 +17  1010.6  -0.6  719  271           
12 01.10.10 270 (З) >10 км    6/4 600 м кучево-дожд., средняя 
[Cb calv|Ac trans]
+18.9 +7.3 47 +19  1010.9  0.5  719  270           
15 01.10.10 280 (З) >10 км    8/3 600 м кучево-дожд., средняя, верхняя 
[Cb calv|Ac trans|Ci fib]
+14.1 +9.7 75 +15  1013.1  1.3  720  274           
18 01.10.10 310 (СЗ) >10 км    4/0 средняя 
[Ac trans]
+12.9 +9.5 80 +13  1014.5  721  276    +19.7       
21 01.10.10 300 (СЗ) >10 км    5/0 средняя 
[Ac trans]
+11.4 +9.7 89 +13  1015.8  722  277           
00 02.10.10 270 (З) >10 км    8/0 средняя 
[Ac trans]
+11 +8.7 86 +10  1016.3  0.6  722  278           
03 02.10.10 310 (СЗ) 10 км    10/6 400 м кучево-дожд., средняя 
[Cb calv|Ac und]
+10.3 +9 92 +10  1017.7  1.2  723  279           
06 02.10.10 310 (СЗ) 4000 м  дымка  10/6 300 м кучево-дожд., средняя 
[Cb calv|Ac und]
+10 +7 82 +10  1018.3  0.4  724  280  +9.8         
09 02.10.10 300 (СЗ) >10 км    9/8 420 м кучево-дожд., средняя 
[Cb calv|Ac trans]
+11.8 +7.7 76 +11  1018.8  0.8  724  278           
12 02.10.10 310 (СЗ) >10 км    9/8 630 м кучево-дожд., средняя 
[Cb calv|Ac trans]
+12.1 +6.8 70 +12  1019.2  0.4  724  278           
15 02.10.10 340 (С) >10 км    9/8 700 м кучево-дожд., средняя 
[Cb calv|Ac trans]
+11.4 +7 74 +12  1019.6  0.3  725  279           
18 02.10.10 050 (СВ) >10 км    8/5 1000 м кучево-дожд., средняя 
[Cb calv|Ac trans]
+8.6 +5.8 83 +7  1020.8  0.6  725  282    +12.8       
21 02.10.10 050 (СВ) >10 км    8/4 600 м кучево-дожд., средняя 
[Cb calv|Ac trans]
+6.8 +4.2 83 +5  1021.8  0.6  726  285           
00 03.10.10 080 (В) 1800 м  слаб. ливневой дождь  10/8 180 м кучево-дожд., средняя 
[Cb cap|Ac und]
+5.8 +4.6 92 +3  1020.6  -1.2  725  285           
03 03.10.10 050 (СВ) 0200 м  туман{ливн. осадки}  ?/?  
+5.7 +5.7 100 +4  1019.9  -0.8  724  285           
06 03.10.10 060 (СВ) 1500 м  дымка{ливн. осадки, туман}  10/10 60 м 
[St]
+6.2 +5.8 97 +4  1020  0.2  724  284  +5.3       
09 03.10.10 080 (В) 4000 м  слаб. ливневой снег  10/8 120 м кучево-дожд., средняя 
[Cb cap|Ac und]
+6.1 +5.4 95 +4  1019.9  -0.1  724  284           
12 03.10.10 070 (В) 4000 м  слаб. ливневой снег  10/8 120 м кучево-дожд., средняя 
[Cb cap|Ac und]
+6.2 +5.8 97 +4  1020.8  0.9  725  285           
15 03.10.10 040 (СВ) 2000 м  слаб. ливневой дождь  10/8 100 м кучево-дожд., средняя 
[Cb cap|Ac und]
+4.1 +3.9 99 +1  1022.6  1.3  726  287           
18 03.10.10 060 (СВ) 2000 м  слаб. ливневой дождь  10/8 100 м кучево-дожд., средняя 
[Cb cap|Ac und]
+3.3 +2.6 95 +1  1024  1.1  727  289    +6.8  20     
21 03.10.10 090 (В) 4000 м  слаб. ливневой дождь  10/8 100 м кучево-дожд., средняя 
[Cb cap|Ac und]
+3.7 +3.2 96 +2  1023.2  -0.6  726  288           
00 04.10.10 090 (В) 1500 м  слаб. ливневой дождь  10/8 60 м кучево-дожд., средняя 
[Cb cap|Ac und]
+4 +3.5 97 +2  1022.8  -0.3  726  288           
03 04.10.10 080 (В) 0600 м  туман{ливн. осадки}  ?/?  
+5 +5 100 +2  1022.6  726  286           
06 04.10.10 080 (В) 0800 м  туман{ливн. осадки}  ?/?  
+4.6 +4.6 100 +2  1023.7  0.9  727  287  +3       
09 04.10.10 080 (В) 0200 м  туман{дождь}  ?/?  
+4.4 +4.4 100 +2  1024.7  0.8  727  288           
12 04.10.10 070 (В) 1300 м  дымка{дождь, туман}  10/10 60 м 
[St]
+4.6 +4.4 99 +2  1024.8  0.2  727  287           
15 04.10.10 090 (В) 0300 м  туман{дождь}  ?/?  
+4.2 +4.2 100 +1  1025.5  0.6  728  288           
18 04.10.10 100 (В) 2500 м  дымка{дождь, туман}  10/10 240 м 
[St]
+4.5 +4 97 +3  1026.3  0.9  728  288    +5.1     
21 04.10.10 090 (В) >10 км    10/8 420 м средняя 
[Sc|Ac und]
+4.3 +3.3 93 +2  1025.9  -0.5  728  288           
00 05.10.10 110 (В) 10 км    10/6 180 м средняя 
[Sc|Ac und]
+4.4 +3.7 95 +3  1026.2  0.3  728  288           
03 05.10.10 080 (В) 4000 м  дымка  10/10 150 м 
[St]
+3.4 +2.9 97 +1  1026  -0.4  728  289           
06 05.10.10 080 (В) >10 км    10/5 360 м средняя 
[Sc|Ac und]
+5 +3 87 +3  1026.1  0.5  728  288  +3.2         
09 05.10.10 090 (В) >10 км    10/6 600 м средняя 
[Sc|Ac und]
+7.5 +3 73 +5  1024.8  -0.8  728  285           
12 05.10.10 090 (В) >10 км    10/6 720 м средняя 
[Sc|Ac und]
+7.7 +3.2 73 +6  1023.9  -0.9  727  284           
15 05.10.10 080 (В) >10 км    10/6 720 м средняя 
[Sc|Ac und]
+7 +3.2 77 +5  1024.2  0.2  727  285           
18 05.10.10 070 (В) >10 км  слаб. дождь  10/6 800 м средняя 
[Sc|Ac und]
+5.7 +3.6 86 +3  1024.5  727  286    +8.1       
21 05.10.10 090 (В) 10 км  ливневой дождь  10/8 800 м кучево-дожд., средняя 
[Cb cap|Ac und]
+4.9 +3.7 92 +2  1024  -0.6  727  287           
00 06.10.10 070 (В) 10 км  в посл. час ливневой дождь  9/5 720 м кучево-дожд., средняя 
[Cb calv|Ac trans]
+4.8 +3.3 90 +2  1023.2  -0.7  726  287           
03 06.10.10 070 (В) >10 км    10/6 420 м кучево-дожд., средняя 
[Cb calv|Ac und]
+4.4 +2.9 90 +2  1023.1  -0.2  726  287           
06 06.10.10 060 (СВ) 10 км  слаб. ливневой дождь  10/8 330 м кучево-дожд., средняя 
[Cb cap|Ac und]
+4.3 +3.3 93 +2  1023.8  0.6  727  288  +4.1       
09 06.10.10 100 (В) 10 км  слаб. ливневой дождь  10/8 300 м кучево-дожд., средняя 
[Cb cap|Ac und]
+4.2 +2.7 90 +1  1024.5  0.2  727  288           
12 06.10.10 070 (В) >10 км  {ливн. осадки}  10/8 210 м кучево-дожд., средняя 
[Cb calv|Ac und]
+4.5 +2.8 89 +1  1024.3  0.3  727  288           
15 06.10.10 070 (В) >10 км    10/8 180 м кучево-дожд., средняя 
[Cb calv|Ac und]
+4 +3 93 +1  1025.6  1.2  728  289           
18 06.10.10 060 (СВ) 0400 м  морось{дождь}  ?/?  
+3.5 +3.5 100 +1  1025.9  0.2  728  289    +4.7  0.3     
21 06.10.10 060 (СВ) 0200 м  морось  ?/?  
+4.1 +4.1 100 +2  1025.2  -0.6  728  288           
00 07.10.10 070 (В) 1500 м  морось{туман}  10/10 120 м 
[St]
+5.4 +4.6 95 +3  1024.9  -0.1  728  287           
03 07.10.10 090 (В) 2000 м  дымка{морось}  10/10 120 м 
[St]
+5.3 +4.6 95 +3  1025.6  0.7  728  287           
06 07.10.10 080 (В) 4000 м  дымка{морось}  10/10 150 м 
[St]
+6 +5.3 95 +4  1025.9  0.5  728  286  +3.3       
09 07.10.10 070 (В) >10 км    10/8 330 м средняя 
[Sc|Ac und]
+8.2 +6.4 88 +6  1025.8  0.3  729  284           
12 07.10.10 090 (В) >10 км    10/8 420 м средняя 
[Sc|Ac und]
+8.6 +5.5 81 +6  1025.4  -0.3  728  284           
15 07.10.10 080 (В) >10 км    10/8 570 м средняя 
[Sc|Ac und]
+8 +5.3 83 +6  1025.5  728  284           
18 07.10.10 080 (В) >10 км    10/8 450 м средняя 
[Sc|Ac und]
+7.7 +5.5 86 +5  1025.3  -0.3  728  284    +9.3       
21 07.10.10 090 (В) >10 км    10/8 330 м средняя 
[Sc|Ac und]
+6.6 +4.8 88 +4  1024.6  -0.9  728  285           
00 08.10.10 090 (В) 10 км    10/8 180 м средняя 
[St|Ac und]
+6.1 +4.7 91 +3  1023.9  -0.7  727  286           
03 08.10.10 070 (В) 1500 м  морось  10/10 100 м 
[St]
+5.7 +5.2 97 +2  1023.3  -0.7  726  286           
06 08.10.10 090 (В) 0200 м  морось{туман}  ?/?  
+6.6 +6 96 +4  1023.3  0.2  727  285  +5.4    0.0     
09 08.10.10 100 (В) 13{18}  >10 км  {морось, туман}  10/10 420 м 
[Sc]
+9.6 +6.8 83 +7  1021.6  -1.1  726  281           
12 08.10.10 090 (В) 10  >10 км  {морось, туман}  10/10 540 м 
[Sc]
+10.1 +6.5 78 +8  1027  -0.7  725  281           
15 08.10.10 090 (В) 10  >10 км    10/10 360 м 
[Sc]
+9.6 +7.6 87 +7  1019.3  -1.4  724  281           
18 08.10.10 100 (В) 14-19{19}  >10 км    10/10 270 м 
[St]
+8.7 +6.8 88 +5  1017.6  -1.7  723  281    +10.5  0.0     
21 08.10.10 100 (В) 15-19{20}  >10 км    10/10 240 м 
[St]
+8.2 +6.4 88 +4  1015.6  -2.1  721  281           
00 09.10.10 100 (В) 12{19}  >10 км    10/10 180 м 
[St]
+8.4 +7.1 92 +5  1014.3  -1.2  720  280           
03 09.10.10 100 (В) >10 км    10/10 150 м 
[St]
+9 +7.7 92 +6  1013.9  -0.2  720  280           
06 09.10.10 090 (В) 4000 м  дымка  10/10 100 м 
[St]
+9.5 +8.5 94 +8  1014.1  0.2  720  279  +8         
09 09.10.10 090 (В) 4000 м  дымка{морось}  10/10 120 м 
[St]
+10.4 +9.8 96 +11  1015  1.1  721  278           
12 09.10.10 060 (СВ) 1000 м  слаб. дождь{морось}  10/10 100 м 
[Ns]
+10.9 +10.3 96 +12  1015.3  0.5  722  278           
15 09.10.10 060 (СВ) 1200 м  слаб. дождь  10/10 100 м 
[Ns]
+10.3 +9.7 96 +11  1015.7  0.2  722  278           
18 09.10.10 080 (В) 4000 м  дымка{дождь, морось}  10/8 100 м средняя 
[St|Ac und]
+10.4 +10.2 99 +11  1014.6  -1.1  721  278    +11.2     
21 09.10.10 090 (В) 0200 м  туман  ?/?  
+9.2 +9.2 100 +8  1012.9  -1.8  720  279           
00 10.10.10 110 (В) 0200 м  туман  ?/?  
+8.3 +8.3 100 +7  1011.6  -1.4  719  279           
03 10.10.10 040 (СВ) 0100 м  туман{морось}  ?/?  
+8 +8 100 +7  1010.3  -1.3  718  279           
06 10.10.10 230 (ЮЗ) 0500 м  слаб. дождь{морось}  ?/?  
+8.6 +8.6 100 +9  1012.3  719  279  +7.8    0.6     
09 10.10.10 280 (З) 4000 м  дымка{дождь, туман}  10/8 100 м средняя 
[St|Ac und]
+10.9 +10.3 96 +12  1012.1  0.3  719  277           
12 10.10.10 300 (СЗ) >10 км  {дождь, туман}  6/4 210 м средняя 
[St|Ac trans]
+13.4 +7.7 68 +12  1012  0.3  720  275           
15 10.10.10 350 (С) >10 км    8/4 300 м средняя 
[Sc|Ac trans]
+10.4 +7.4 82 +11  1014.1  1.4  721  278           
18 10.10.10 140 (ЮВ) >10 км    4/0 средняя 
[Ac trans]
+8.2 +6.4 88 +8  1014.6  0.1  721  281    +13.6     
21 10.10.10 190 (Ю) >10 км    6/3 600 м средняя 
[Sc|Ac trans]
+7.9 +6.4 90 +8  1013.5  -1.1  720  281           
00 11.10.10 190 (Ю) >10 км    6/3 1000 м средняя 
[Sc|Ac trans]
+9.2 +6.7 84 +9  1012.2  -1  719  279           
03 11.10.10 270 (З) >10 км    8/5 600 м кучево-дожд., средняя 
[Cb calv|Ac trans]
+8.4 +5.5 82 +8  1011.7  -0.6  719  280           
06 11.10.10 070 (В) >10 км    6/3 200 м средняя 
[St|Ac trans]
+9.9 +7.8 87 +11  1011.4  719  278  +5.6         
09 11.10.10 220 (ЮЗ) >10 км    10/5 300 м средняя 
[Sc|Ac und]
+12.1 +8.5 79 +12  1011.1  0.2  719  276           
12 11.10.10 220 (ЮЗ) >10 км  {ливн. осадки}  10/5 600 м кучево-дожд., средняя 
[Cb calv|Ac und]
+12.8 +9.9 82 +15  1010.3  -0.7  718  275           
15 11.10.10 230 (ЮЗ) >10 км    8/3 600 м кучево-дожд., средняя 
[Cb calv|Ac trans]
+10 +5.6 74 +9  1010  -0.1  718  278           
18 11.10.10 300 (СЗ) >10 км    9/5 600 м кучево-дожд., средняя 
[Cb calv|Ac trans]
+9.9 +5.9 76 +9  1010.2  -0.5  718  278    +14.2  0.0     
21 11.10.10 270 (З) 10 км  слаб. ливневой дождь  10/8 400 м кучево-дожд., средняя 
[Cb cap|Ac und]
+8.1 +6.5 90 +5  1012.6  1.9  719  280           
00 12.10.10 280 (З) 10  10 км  {ливн. осадки}  10/8 450 м кучево-дожд., средняя 
[Cb calv|Ac und]
+8 +5.6 85 +5  1012.6  719  281           
03 12.10.10 270 (З) >10 км    10/4 600 м кучево-дожд., средняя 
[Cb calv|Ac und]
+8.3 +5.6 83 +7  1012.1  -0.4  719  280           
06 12.10.10 280 (З) 10  >10 км  слаб. ливневой дождь  8/6 600 м кучево-дожд., средняя, верхняя 
[Cb cap|Ac trans|Ci]
+9.1 +4.5 73 +6  1012.5  0.4  719  280  +7.5       
09 12.10.10 290 (З) 12{18}  >10 км  {ливн. осадки}  6/4 600 м кучево-дожд., средняя 
[Cb calv|Ac trans]
+10.7 +4.8 67 +8  1012.5  0.3  719  278           
12 12.10.10 290 (З) 13{18}  >10 км  {ливн. осадки}  4/4 600 м 
[Cu med, cong]
+11.7 +0.9 47 +9  1012.4  0.1  720  278           
15 12.10.10 300 (СЗ) >10 км    3/0 средняя 
[Ac trans]
+9.2 +1.7 59 +7  1014.4  1.4  721  281           
18 12.10.10 270 (З) >10 км    1/0 средняя 
[Ac trans]
+7.1 +2.3 72 +5  1015.4  0.6  721  283    +12.6  0.0     
21 12.10.10 290 (З) >10 км    1/0 средняя 
[Ac trans]
+7 +1.1 66 +5  1014.6  -0.9  720  283           
00 13.10.10 240 (ЮЗ) >10 км    6/4 600 м средняя 
[Sc|Ac trans]
+8.1 +4 75 +7  1014.1  -0.1  720  281           
03 13.10.10 230 (ЮЗ) >10 км    10/6 400 м кучево-дожд., средняя 
[Cb cap|Ac und]
+8.5 +6.1 85 +7  1013.2  -0.8  720  280           
06 13.10.10 290 (З) >10 км    8/8 480 м 
[Sc diur, vesp]
+10.2 +5.9 75 +9  1013.2  0.3  720  279  +6         
09 13.10.10 300 (СЗ) >10 км    8/8 700 м 
[Sc]
+12.3 +6.2 66 +11  1011.8  -0.9  719  276           
12 13.10.10 270 (З) >10 км    8/8 700 м кучево-дожд. 
[Cb calv]
+13.4 +7.3 67 +13  1010.7  -0.8  719  275           
15 13.10.10 270 (З) >10 км  {ливн. осадки}  8/4 1000 м кучево-дожд., средняя 
[Cb calv|Ac trans]
+10.7 +9 89 +11  1011.4  0.2  719  277           
18 13.10.10 260 (З) >10 км  {ливн. осадки}  10/5 600 м кучево-дожд., средняя 
[Cb calv|Ac und]
+10.6 +7.7 82 +9  1012.3  0.8  719  278    +14.4  0.4     
21 13.10.10 320 (СЗ) >10 км    8/4 600 м кучево-дожд., средняя 
[Cb calv|Ac trans]
+9.4 +7.3 87 +8  1012.7  0.1  719  279           
00 14.10.10 310 (СЗ) >10 км    8/8 840 м 
[Sc diur, vesp]
+6.7 +3.9 82 +5  1012.3  -0.9  719  282           
03 14.10.10 310 (СЗ) 10 км    10/8 300 м средняя 
[Sc diur, vesp|Ac und]
+5.7 +3.8 88 +4  1014.7  2.1  720  284           
06 14.10.10 320 (СЗ) >10 км    9/0 средняя 
[Ac trans]
+5.1 +1.8 79 +5      721  285  +4.5         
09 14.10.10 340 (С) >10 км    10/0 средняя 
[Ac und]
+6.9 -0.9 58 +6  1016  0.3  721  284           
12 14.10.10 050 (СВ) >10 км    10/0 средняя 
[Ac und]
+6.9 -2 53 +7    0.2  722  284           
15 14.10.10 060 (СВ) >10 км    9/0 средняя 
[Ac trans]
+5.7 -0.7 63 +5  1015.9  -0.5  721  285           
18 14.10.10 110 (В) >10 км    8/0 средняя 
[Ac trans]
+4.3   1016.2  721      +7.4       
21 14.10.10 120 (ЮВ) >10 км    10/0 средняя 
[Ac und]
+5.7 +0.6 70 +4  1014.2  -1.6  720  284           
00 15.10.10 140 (ЮВ) 10 км    10/5 210 м средняя 
[St|Ac und]
+6.5 +4.9 90 +5  1012.7  -1.2  719  282           
03 15.10.10 140 (ЮВ) >10 км    8/3 300 м средняя 
[Sc|Ac trans]
+5.8 +4.6 92 +3  1011.7  -1.1  718  283           
06 15.10.10 140 (ЮВ) 10 км    10/8 300 м средняя 
[Sc|Ac und]
+7.2 +5 86 +6  1011.1  -0.3  718  281  +3.7         
09 15.10.10 130 (ЮВ) >10 км    10/4 300 м средняя 
[Sc|Ac und]
+10 +5.9 76 +8  1009.2  -1.3  717  278           
12 15.10.10 120 (ЮВ) >10 км    10/5 300 м средняя 
[Sc|Ac und]
+10.2 +7.3 82 +9  1007.5  -1.5  716  277           
15 15.10.10 130 (ЮВ) 4000 м  слаб. ливневой дождь  10/8 330 м кучево-дожд., средняя 
[Cb cap|Ac und]
+8.2 +7.4 95 +7  1007.5  -0.4  716  279           
18 15.10.10 130 (ЮВ) 10 км  слаб. ливневой дождь  10/8 360 м кучево-дожд., средняя 
[Cb cap|Ac und]
+8.3 +7.7 96 +7  1007.7  0.2  716  279    +10.6     
21 15.10.10 250 (З) 10 км  слаб. ливневой дождь  10/8 150 м кучево-дожд., средняя 
[Cb cap|Ac und]
+8.8 +8.2 96 +10  1008.5  0.9  716  278           
00 16.10.10 170 (Ю) 0800 м  слаб. ливневой дождь{туман}  ?/?  
+8.4 +8.4 100 +7  1008.7  0.1  717  279           
03 16.10.10 310 (СЗ) 10 км  слаб. ливневой дождь{туман}  10/8 100 м кучево-дожд., средняя 
[Cb cap|Ac und]
+9 +8.4 96 +8  1012  3.1  719  279           
06 16.10.10 280 (З) >10 км  {ливн. осадки, туман}  10/6 120 м кучево-дожд., средняя 
[Cb cap|Ac und]
+9.8 +9.4 97 +11    2.8  721  279  +8    18     
09 16.10.10 320 (СЗ) >10 км    9/6 330 м кучево-дожд., средняя 
[Cb cap|Ac trans]
+12.3 +10.7 90 +16  1014.4  0.2  721  276           
12 16.10.10 350 (С) >10 км    10/4 300 м средняя 
[Sc|Ac und]
+12.2 +10.6 90 +16  1015  0.6  722  276           
15 16.10.10 020 (С) 10 км  в посл. час дождь  10/4 330 м средняя 
[Sc|Ac und]
+11.1 +10.5 96 +15  1015.9  0.6  722  278           
18 16.10.10 090 (В) 2000 м  дымка{дождь}  10/8 120 м средняя 
[St|Ac und]
+10.7 +10.3 97 +12  1016.2  0.2  722  278    +12.9     
21 16.10.10 090 (В) 2000 м  дымка  10/4 120 м средняя 
[Sc|Ac und]
+10.6 +10.2 97 +12  1016  -0.2  722  278           
00 17.10.10 090 (В) 0800 м  туман  ?/?  
+10.2 +10.2 100 +12  1016.1  722  279           
03 17.10.10 090 (В) 0200 м  туман  ?/?  
+10.2 +10.2 100 +11  1016.1  722  279           
06 17.10.10 090 (В) 0200 м  слаб. дождь{туман}  ?/?  
+10.1 +10.1 100 +11  1017  0.9  723  279  +9.6         
09 17.10.10 090 (В) 4000 м  дымка{дождь, туман}  10/10 60 м 
[Ns]
+10.2 +9.5 95 +10  1017  723  279           
12 17.10.10 100 (В) 10 км  слаб. дождь{туман}  10/10 100 м 
[Sc]
+10.6 +9.8 95 +11  1017.1  0.2  723  279           
15 17.10.10 110 (В) 4000 м  слаб. ливневой дождь  10/8 180 м кучево-дожд., средняя 
[Cb cap|Ac und]
+10.2 +9.5 95 +10  1018.6  1.3  724  279           
18 17.10.10 140 (ЮВ) 0800 м  слаб. ливневой дождь  ?/?  
+10.5 +10.3 99 +12  1019.6  725  279    +11.2     
21 17.10.10 130 (ЮВ) 10 км  {ливн. осадки, туман}  10/8 100 м средняя 
[St|Ac und]
+10 +9.4 96 +10  1019.6  -0.1  725  280           
00 18.10.10 150 (ЮВ) 0900 м  туман{ливн. осадки}  ?/?  
+10.1 +10.1 100 +11  1019.9  0.3  725  280           
03 18.10.10 120 (ЮВ) 4000 м  дымка{туман}  10/8 100 м средняя 
[St|Ac und]
+10.2 +9.8 97 +11  1020.3  0.4  725  280           
06 18.10.10 150 (ЮВ) >10 км  {туман}  10/8 120 м средняя 
[St|Ac und]
+11 +10 94 +12  1020.6  0.5  725  279  +9.8       
09 18.10.10 140 (ЮВ) >10 км    8/4 300 м средняя 
[Sc|Ac trans]
+14.6 +11.7 83 +18  1020.1  0.1  725  275           
12 18.10.10 140 (ЮВ) >10 км    3/1 300 м средняя 
[Sc|Ac trans]
+15.6 +11.3 76 +19  1019.3  -0.6  725  274           
15 18.10.10 130 (ЮВ) >10 км    10/1 200 м средняя 
[St|Ac trans]
+10.9 +9 88 +11  1020.8  0.6  725  279           
18 18.10.10 130 (ЮВ) >10 км    10/10 150 м 
[St]
+10.9 +10.2 95 +12  1020.9  0.1  726  279    +16.7       
21 18.10.10 170 (Ю) 10 км    10/10 180 м 
[St]
+11 +10 94 +12  1020.4  -0.4  725  279           
00 19.10.10 150 (ЮВ) >10 км    10/10 180 м 
[St]
+10.2 +9.4 95 +10  1019.9  -0.7  725  280           
03 19.10.10 140 (ЮВ) >10 км    10/10 100 м 
[St]
+10.2 +9.5 95 +10  1019.8  -0.1  725  280           
06 19.10.10 130 (ЮВ) 10 км    10/8 150 м средняя 
[St|Ac und]
+11.2 +10.3 94 +12  1019.6  725  279  +10         
09 19.10.10 110 (В) >10 км    8/6 360 м средняя 
[Sc|Ac trans]
+14.6 +11 79 +17  1018.8  -0.1  725  275           
12 19.10.10 120 (ЮВ) >10 км    9/6 480 м средняя 
[Sc|Ac trans]
+14.4 +10.2 76 +15  1018.6  -0.3  724  275           
15 19.10.10 120 (ЮВ) >10 км  в посл. час дождь  10/8 330 м средняя 
[Sc|Ac und]
+11 +9.4 90 +10  1019.4  -0.2  725  279           
18 19.10.10 110 (В) >10 км  {дождь}  10/8 400 м средняя 
[Sc|Ac und]
+10.8 +9.7 93 +10  1019.5  -0.2  724  279    +16.3  0.0     
21 19.10.10 120 (ЮВ) >10 км  {дождь}  10/8 300 м средняя 
[Sc|Ac und]
+11.1 +9.9 92 +11  1018.7  -0.4  724  278           
00 20.10.10 120 (ЮВ) >10 км  {дождь}  10/8 210 м средняя 
[Sc|Ac und]
+11 +10 94 +11  1019.1  0.3  724  279           
03 20.10.10 120 (ЮВ) 10 км  слаб. дождь  10/8 150 м средняя 
[St|Ac und]
+10.7 +9.9 95 +11  1019.3  0.1  724  279           
06 20.10.10 130 (ЮВ) 10  >10 км  {дождь}  10/8 100 м средняя 
[St|Ac und]
+10.7 +10.2 97 +10  1019.3  724  279  +10.5    0.0     
09 20.10.10 120 (ЮВ) >10 км  {дождь}  10/6 400 м средняя 
[Sc|Ac und]
+12.5 +10.6 88 +14  1018.8  -0.1  724  277           
12 20.10.10 130 (ЮВ) >10 км  {дождь}  10/8 300 м средняя 
[Sc|Ac und]
+12.5 +11.2 92 +15  1017.6  -1.1  723  277           
15 20.10.10 100 (В) >10 км    10/8 180 м средняя 
[Sc|Ac und]
+11.7 +11.1 96 +13  1017.1  -0.7  723  277           
18 20.10.10 100 (В) >10 км    10/10 100 м 
[St]
+12.1 +11.8 98 +15  1014.6  -2.2  721  276    +14.1  0.0     
21 20.10.10 160 (Ю) >10 км    10/4 180 м средняя 
[Sc|Ac und]
+12.5 +12.1 97 +17  1015.4  0.8  722  276           
00 21.10.10 120 (ЮВ) 2000 м  дымка{дождь, туман}  10/4 200 м средняя 
[St|Ac und]
+11.7 +11.3 97 +16  1015  -0.5  722  277           
03 21.10.10 180 (Ю) >10 км    8/0 средняя 
[Ac trans]
+10.9 +10.5 97 +14  1016  0.8  722  278           
06 21.10.10 160 (Ю) >10 км  {туман}  8/3 600 м средняя 
[Sc|Ac trans]
+14.4 +12.2 87 +20  1018  2.6  724  275  +10.5    0.7     
09 21.10.10 250 (З) >10 км    5/3 600 м средняя 
[Cu hum|Ac trans]
+20.8 +9.2 47 +22  1016.7  -0.3  724  269           
12 21.10.10 270 (З) >10 км    6/6 800 м 
[Sc]
+22.4 +10.4 47 +25  1016.7  0.4  724  268           
15 21.10.10 100 (В) >10 км    8/4 600 м средняя 
[Sc|Ac trans]
+18.6 +12.7 69 +25  1017.5  0.1  724  271           
18 21.10.10 190 (Ю) >10 км    3/0 средняя 
[Ac trans]
+14.7 +11.8 83 +19  1018.8  0.5  725  275    +22.9       
21 21.10.10 320 (СЗ) >10 км    5/3 600 м средняя 
[Sc|Ac trans]
+14.1 +12.6 91 +20  1019.2  0.3  725  275           
00 22.10.10 250 (З) >10 км    3/0 средняя 
[Ac trans]
+11.9 +10.7 92 +15  1019.2  -0.4  725  278           
03 22.10.10 280 (З) >10 км    8/5 900 м средняя 
[Sc|Ac trans]
+14.1 +12.6 91 +20  1020  1.2  725  275           
06 22.10.10 300 (СЗ) 0700 м  слаб. морось{туман}  ?/?  
+13.1 +13.1 100 +19  1021.4  1.1  726  277  +11.8         
09 22.10.10 330 (СЗ) 2000 м  дымка{ливн. осадки, морось}  10/8 210 м кучево-дожд., средняя 
[Cb calv|Ac und]
+12 +10.4 90 +13  1023.4  1.7  728  279           
12 22.10.10 320 (СЗ) >10 км  {ливн. осадки, морось}  10/8 330 м кучево-дожд., средняя 
[Cb calv|Ac und]
+10.7 +6.2 74 +9  1026.1  2.3  729  282           
15 22.10.10 300 (СЗ) >10 км    10/8 800 м средняя 
[Sc|Ac und]
+9.7 +4.8 72 +10  1028.6  2.1  731  284           
18 22.10.10 320 (СЗ) >10 км    8/4 600 м средняя 
[Sc|Ac trans]
+8.9 +5.8 81 +8  1029.6  0.9  731  284    +14.1  0.0     
21 22.10.10 040 (СВ) >10 км    6/0 средняя 
[Ac trans]
+6.8 +4 82 +7  1030.4  0.2  732  287           
00 23.10.10 080 (В) >10 км    8/0 средняя 
[Ac trans]
+5.4 +2.7 83 +4  1029.7  -0.7  731  288           
03 23.10.10 080 (В) >10 км    4/0 средняя 
[Ac trans]
+3.5 +1.7 88 +2  1029.4  -0.9  730  290           
06 23.10.10 090 (В) >10 км    8/0 средняя 
[Ac trans]
+7.2 +3.8 79 +5  1028.2  -0.4  730  286  +3.3         
09 23.10.10 110 (В) >10 км    9/8 500 м средняя 
[Sc|Ac trans]
+10.4 +4.8 68 +140  1026.2  -1.2  69  25           
12 23.10.10 110 (В) >10 км    9/5 300 м средняя 
[Sc|Ac trans]
+9.8 +4.1 68 +8  1025.4  -0.9  729  283           
15 23.10.10 110 (В) >10 км    9/6 480 м средняя 
[Sc|Ac trans]
+8.8 +5 77 +8  1025.8  0.2  729  284           
18 23.10.10 090 (В) >10 км    9/4 600 м средняя 
[Sc|Ac trans]
+7.5 +5 84 +5  1025.3  -0.7  728  285    +11.1       
21 23.10.10 100 (В) >10 км    9/0 средняя 
[Ac trans]
+6.4 +4.6 88 +5  1024.7  -0.9  728  286           
00 24.10.10 110 (В) 10 км    10/8 180 м средняя 
[St|Ac und]
+7.1 +6.2 94 +6  1024.6  0.1  728  285           
03 24.10.10 100 (В) 4000 м  дымка  10/10 100 м 
[St]
+7.2 +6.5 95 +6  1024.8  0.2  728  285           
06 24.10.10 120 (ЮВ) 4000 м  дымка  10/10 120 м 
[St]
+7.5 +6.8 95 +5  1025.2  0.5  728  284  +6.2         
09 24.10.10 130 (ЮВ) >10 км    10/8 400 м средняя 
[Sc|Ac und]
+9.5 +7 84 +8  1024.6  -0.2  728  282           
12 24.10.10 150 (ЮВ) >10 км    8/5 540 м средняя 
[Sc|Ac trans]
+11.1 +7.1 76 +9  1023.9  -0.4  728  280           
15 24.10.10 120 (ЮВ) >10 км    10/6 600 м средняя 
[Sc|Ac trans]
+9.4 +7.1 86 +8  1024.3  0.1  728  282           
18 24.10.10 120 (ЮВ) >10 км    8/8 270 м 
[St]
+7.2 +6.4 95 +6  1024.7  -0.1  728  285    +11.3       
21 24.10.10 130 (ЮВ) 2000 м  дымка  10/10 100 м 
[St]
+7.2 +7 99 +5  1023.7  -0.8  727  284           
00 25.10.10 100 (В) 3000 м  дымка{туман}  10/8 400 м средняя 
[Sc|Ac und]
+6.6 +5.9 95 +4  1023.5  -0.4  727  285           
03 25.10.10 110 (В) 0200 м  туман  8/8 120 м 
[St]
+5 +5 100 +3  1023.8  727  287           
06 25.10.10 110 (В) 0700 м  туман  ?/?  
+7.7 +7.7 100 +6  1024  0.7  727  284  +4.5         
09 25.10.10 120 (ЮВ) >10 км  {туман}  10/8 480 м средняя 
[Sc|Ac und]
+10.5 +7 79 +9  1022.5  -0.9  727  281           
12 25.10.10 110 (В) >10 км  {туман}  10/8 630 м средняя 
[Sc|Ac und]
+11.3 +7.1 75 +10  1022  -0.3  726  280           
15 25.10.10 110 (В) >10 км    10/8 480 м средняя 
[Sc|Ac und]
+10.3 +7.8 84 +9  1022.8  0.6  727  281           
18 25.10.10 110 (В) >10 км    3/0 средняя 
[Ac trans]
+8.4 +6.2 86 +7  1023.3  0.1  727  283    +12       
21 25.10.10 110 (В) >10 км    8/8 540 м 
[Sc]
+9.3 +7 86 +8  1022.3  -0.8  726  282           
00 26.10.10 110 (В) >10 км    3/3 300 м 
[Sc]
+7.8 +6.1 89 +6  1022.4  -0.1  726  283           
03 26.10.10 140 (ЮВ) >10 км    3/0 средняя 
[Ac trans]
+6.4 +5.5 94 +5  1022.5  -0.2  726  285           
06 26.10.10 140 (ЮВ) 4000 м  дымка{туман}  8/8 100 м 
[St]
+9.4 +8 91 +8  1022.2  0.2  726  281  +5.5         
09 26.10.10 140 (ЮВ) >10 км    4/0 средняя 
[Ac trans]
+13.4 +7 65 +12  1020.8  -0.6  726  278           
12 26.10.10 140 (ЮВ) >10 км    3/0 верхняя 
[Ci fib]
+13.5 +3.6 51 +12  1019.5  -1.2  725  278           
15 26.10.10 140 (ЮВ) >10 км    3/0 средняя 
[Ac trans]
+9.4 +4.1 69 +8  1020  -0.2  725  282           
18 26.10.10 140 (ЮВ) >10 км    ясно 
+8.4 +6.2 86 +7  1018.6  -1.6  724  282    +15.1       
21 26.10.10 150 (ЮВ) >10 км    ясно 
+7.2 +6.1 93 +6  1017.7  -1.1  723  283           
00 27.10.10 140 (ЮВ) >10 км    ясно 
+6.8 +5.5 91 +5  1017.6  -0.1  723  283           
03 27.10.10 180 (Ю) >10 км    3/0 средняя 
[Ac trans]
+7 +5.6 91 +6  1017.5  -0.1  723  283           
06 27.10.10 270 (З) >10 км    6/0 средняя, верхняя 
[Ac trans|Ci fib]
+14.1 +9.7 75 +15  1016.7  0.6  723  275  +4.5         
09 27.10.10 320 (СЗ) >10 км    8/4 300 м средняя 
[Sc|Ac trans]
+15.5 +11.4 77 +19  1016.5  0.1  723  273           
12 27.10.10 300 (СЗ) >10 км    9/5 600 м средняя 
[Sc|Ac trans]
+15.1 +11.5 79 +19  1016.5  -0.1  723  274           
15 27.10.10 260 (З) >10 км    10/5 1000 м средняя 
[Sc|Ac und]
+13.1 +11.2 88 +18  1016.8  -0.1  723  276           
18 27.10.10 200 (Ю) >10 км  в посл. час дождь  8/3 600 м средняя 
[Sc|Ac trans]
+11.9 +11 94 +15  1016.4  -0.5  723  277    +17.2       
21 27.10.10 200 (Ю) >10 км    8/5 1000 м средняя 
[Sc|Ac trans]
+11.3 +9.9 91 +13  1015.7  -0.7  722  277           
00 28.10.10 290 (З) >10 км  в посл. час дождь  9/3 1000 м средняя 
[Sc|Ac trans]
+11.4 +9.4 87 +11  1016.4  0.5  722  278           
03 28.10.10 280 (З) 10 км  слаб. дождь  10/8 330 м средняя 
[Sc|Ac und]
+11.1 +9.9 92 +12  1016.1  -0.3  722  278           
06 28.10.10 310 (СЗ) 4000 м  слаб. дождь{морось}  10/10 120 м 
[St]
+9.2 +8.4 95 +8  1017.5  723  280  +8.7       
09 28.10.10 290 (З) 4000 м  слаб. ливневой дождь  10/8 180 м кучево-дожд., средняя 
[Cb cap|Ac und]
+6 +5.1 94 +4  1018  -0.2  723  284           
12 28.10.10 260 (З) >10 км  слаб. ливневой дождь  10/8 210 м кучево-дожд., средняя 
[Cb cap|Ac und]
+4.6 +3.6 93 +3  1018.3  723  286           
15 28.10.10 270 (З) 10 км  слаб. ливневой дождь  10/8 180 м кучево-дожд., средняя 
[Cb cap|Ac und]
+4.4 +3.4 93 +4  1018.3  -0.1  723  286           
18 28.10.10 300 (СЗ) >10 км  слаб. ливневой дождь  10/6 180 м кучево-дожд., средняя 
[Cb cap|Ac und]
+4.3 +3.1 92 +3  1018.3  723  286    +11.1  11     
21 28.10.10 350 (С) >10 км  {ливн. осадки}  9/5 600 м кучево-дожд., средняя 
[Cb calv|Ac trans]
+3.4 +1.9 90 +2  1018.1  -0.4  722  287           
00 29.10.10 010 (С) >10 км  {ливн. осадки}  10/8 630 м средняя 
[Sc diur, vesp|Ac und]
+2 -0.2 85 +1  1018.8  0.4  723  289           
03 29.10.10 020 (С) >10 км    8/3 600 м средняя 
[Sc diur, vesp|Ac trans]
+0.4 -1.3 88 +1  1018.9  -0.2  723  291           
06 29.10.10 010 (С) >10 км    10/5 480 м средняя 
[Sc|Ac und]
+1.4 -1.1 83 +2  1019.2  0.5  723  290  +0.2       
09 29.10.10 070 (В) >10 км    10/5 480 м средняя 
[Sc|Ac und]
+3.1 +1.3 88 +2  1018.1  -0.7  722  288           
12 29.10.10 080 (В) >10 км    10/5 300 м средняя 
[Sc|Ac und]
+3.1 +1.3 88 +1  1017.1  -0.9  722  287           
15 29.10.10 060 (СВ) >10 км    10/6 210 м средняя 
[St|Ac und]
+2.3 +1.3 93 1017.9  0.5  722  288           
18 29.10.10 060 (СВ) 1700 м  слаб. морось  10/10 60 м 
[St]
+1.9 +1.6 98 -1  1017.5  -0.4  722  289    +3.8       
21 29.10.10 070 (В) 0200 м  слаб. морось{туман}  10/10 <0100 м 
+1.8 +1.8 100 1017  -0.5  721  288           
00 30.10.10 050 (СВ) 0100 м  туман{морось}  ?/?  
+1.7 +1.7 100 -1  1016.8  -0.2  721  288           
03 30.10.10 080 (В) 0100 м  слаб. морось{туман}  ?/?  
+1.8 +1.8 100 1017  0.2  721  288           
06 30.10.10 040 (СВ) 0200 м  слаб. морось{туман}  ?/?  
+2.1 +2.1 100 +1  1017.9  0.9  722  288  +1.5    0.6     
09 30.10.10 350 (С) 1300 м  слаб. морось{туман}  10/10 120 м 
[St]
+2.2 +1.9 98 1018.7  0.8  723  289           
12 30.10.10 340 (С) 1500 м  слаб. морось{туман}  10/10 100 м 
[St]
+1.8 +1.5 98 1020.3  1.4  724  289           
15 30.10.10 340 (С) >10 км  {морось}  10/8 360 м средняя 
[Sc|Ac und]
+1.6 +0.2 91 -1  1022.8  2.3  718  287           
18 30.10.10 310 (СЗ) 10 км  слаб. дождь со снегом{морось}  10/8 400 м средняя 
[Sc|Ac und]
+0.8 -0.6 90 -2  1025.5  2.4  727  292    +2.4  0.4     
21 30.10.10 280 (З) >10 км  в посл. час снег  10/8 480 м средняя 
[Sc|Ac und]
+1.1 -0.3 90 1026.1  0.6  728  292           
00 31.10.10 280 (З) >10 км  {снег}  10/6 600 м средняя 
[Sc|Ac und]
+1.5 -0.2 88 -1  1026.9  0.9  728  292           
03 31.10.10 310 (СЗ) >10 км    10/5 600 м средняя 
[Sc|Ac und]
+1.6 -0 89 -1  1028.1  1.1  729  292           
06 31.10.10 320 (СЗ) >10 км    8/1 600 м средняя 
[Sc|Ac trans]
+3.8 +0.9 81 +2  1028.4  0.8  730  290  +0.6    0.0     
09 31.10.10 290 (З) >10 км    10/3 600 м средняя 
[Sc|Ac und]
+4.9 +1.6 79 +3  1028.4  0.2  730  289           
12 31.10.10 340 (С) >10 км    10/3 300 м средняя 
[Sc|Ac und]
+5.2 +2.2 81 +4  1028.2  -0.1  730  288           
15 31.10.10 020 (С) >10 км    10/4 300 м средняя 
[Sc|Ac und]
+4.6 +2.1 84 +3  1029.4  731  289           
18 31.10.10 310 (СЗ) 10 км    10/3 300 м средняя 
[Sc|Ac und]
+3.9 +2.4 90 +5  1030.4  0.8  731  290    +6.1       
21 31.10.10 030 (СВ) 10 км    10/4 300 м средняя 
[Sc|Ac und]
+3.7 +2.4 91 +3  1029.6  -0.5  731  290           
00 01.11.10 020 (С) >10 км    10/3 600 м средняя 
[Sc|Ac und]
+3.2 +1.1 86 +4  1029.9  0.2  731  291           
03 01.11.10 360 (С) >10 км    8/3 600 м средняя 
[Sc|Ac trans]
+2.5 -3.4 65 +1  1030.4  0.2  731  292           
Время (UTC), дата Ветер
(°,м/с) 
Видим.   Явления Облачность Т
(°С)
Тd
(°С)
f(%) Тe
(°С)
Pmin
(гПа)
dP
(гПа)
Po
(мм)
O2
(г/м3)
Тmin Tmax R s Состояние
почвы